BKB1 CBR2-CYKA

Flight info

Callsign BKB1
Flight time 0h 46m
Altitude 16000
Route ATHUR T646 ENDBY T687 VOLOX
Aircraft PC12/L-SDFGRWY/S

Departure

Time 2026-04-26 21:19
Airport Kaslo Airport (CBR2)

Arrival

Time 2026-04-26 22:05
Airport Kamloops John Moose Fulton Field Regional Airport (CYKA)
Time Latitude Longitude Altitude Speed Heading
2026-04-26 20:55 49.90434 -116.92919 2435 ft 0 kts 186°
2026-04-26 21:17 49.90426 -116.92920 2438 ft 4 kts 189°
2026-04-26 21:18 49.90399 -116.92956 2438 ft 5 kts 206°
2026-04-26 21:18 49.90356 -116.92964 2438 ft 7 kts 184°
2026-04-26 21:18 49.90344 -116.92990 2440 ft 0 kts 274°
2026-04-26 21:18 49.90345 -116.93023 2422 ft 17 kts 273°
2026-04-26 21:19 49.90355 -116.93463 2442 ft 66 kts 274°
2026-04-26 21:19 49.90378 -116.94378 2471 ft 102 kts 271°
2026-04-26 21:19 49.90436 -116.95464 2807 ft 101 kts 283°
2026-04-26 21:19 49.90711 -116.96505 3107 ft 109 kts 298°
2026-04-26 21:20 49.91146 -116.97473 3532 ft 108 kts 316°
2026-04-26 21:20 49.91778 -116.98152 3898 ft 114 kts 333°
2026-04-26 21:20 49.92480 -116.98671 4392 ft 107 kts 337°
2026-04-26 21:20 49.93147 -116.99120 4840 ft 106 kts 338°
2026-04-26 21:21 49.93845 -116.99600 5252 ft 109 kts 335°
2026-04-26 21:21 49.94508 -117.00144 5782 ft 110 kts 333°
2026-04-26 21:21 49.95226 -117.00738 6237 ft 124 kts 334°
2026-04-26 21:21 49.96053 -117.01422 6640 ft 146 kts 334°
2026-04-26 21:22 49.97013 -117.02209 7011 ft 165 kts 333°
2026-04-26 21:22 49.97924 -117.03369 7379 ft 178 kts 304°
2026-04-26 21:22 49.98637 -117.05014 7752 ft 190 kts 304°
2026-04-26 21:23 50.00144 -117.08586 8485 ft 206 kts 302°
2026-04-26 21:23 50.00785 -117.10594 8856 ft 210 kts 294°
2026-04-26 21:23 50.01343 -117.12713 9226 ft 214 kts 292°
2026-04-26 21:23 50.01880 -117.14893 9609 ft 217 kts 291°
2026-04-26 21:24 50.02413 -117.17103 9979 ft 219 kts 291°
2026-04-26 21:24 50.02949 -117.19327 10332 ft 221 kts 290°
2026-04-26 21:24 50.03488 -117.21567 10682 ft 221 kts 290°
2026-04-26 21:24 50.04029 -117.23815 11041 ft 222 kts 290°
2026-04-26 21:25 50.04560 -117.26066 11400 ft 222 kts 291°
2026-04-26 21:25 50.05098 -117.28325 11766 ft 223 kts 290°
2026-04-26 21:25 50.05638 -117.30578 12130 ft 221 kts 290°
2026-04-26 21:25 50.06163 -117.32751 12508 ft 207 kts 290°
2026-04-26 21:26 50.06656 -117.34786 12888 ft 195 kts 290°
2026-04-26 21:26 50.07124 -117.36707 13275 ft 185 kts 290°
2026-04-26 21:26 50.07570 -117.38530 13666 ft 176 kts 290°
2026-04-26 21:26 50.07990 -117.40258 14013 ft 164 kts 291°
2026-04-26 21:27 50.08368 -117.41869 14350 ft 152 kts 291°
2026-04-26 21:27 50.08703 -117.43368 14697 ft 143 kts 291°
2026-04-26 21:27 50.09020 -117.44865 15056 ft 148 kts 291°
2026-04-26 21:27 50.09341 -117.46423 15411 ft 154 kts 290°
2026-04-26 21:28 50.09672 -117.48060 15729 ft 170 kts 290°
2026-04-26 21:28 50.10057 -117.49950 15883 ft 195 kts 290°
2026-04-26 21:28 50.10497 -117.52073 15946 ft 216 kts 290°
2026-04-26 21:28 50.10983 -117.54383 15984 ft 232 kts 290°
2026-04-26 21:29 50.11630 -117.56713 15990 ft 237 kts 310°
2026-04-26 21:29 50.12963 -117.58144 16004 ft 233 kts 339°
2026-04-26 21:29 50.14461 -117.59086 16011 ft 232 kts 335°
2026-04-26 21:29 50.15831 -117.60423 16000 ft 233 kts 323°
2026-04-26 21:30 50.16997 -117.62165 15985 ft 233 kts 314°
2026-04-26 21:30 50.18006 -117.64130 15991 ft 231 kts 308°
2026-04-26 21:30 50.18921 -117.66191 16002 ft 231 kts 306°
2026-04-26 21:30 50.19793 -117.68302 16003 ft 231 kts 304°
2026-04-26 21:31 50.20642 -117.70428 16000 ft 230 kts 304°
2026-04-26 21:31 50.21473 -117.72544 15999 ft 227 kts 304°
2026-04-26 21:31 50.22293 -117.74637 16006 ft 225 kts 304°
2026-04-26 21:31 50.23109 -117.76722 16010 ft 225 kts 304°
2026-04-26 21:32 50.23922 -117.78800 16007 ft 224 kts 304°
2026-04-26 21:32 50.24733 -117.80879 16010 ft 224 kts 304°
2026-04-26 21:32 50.25544 -117.82958 16007 ft 224 kts 304°
2026-04-26 21:32 50.26353 -117.85034 16004 ft 223 kts 304°
2026-04-26 21:33 50.27149 -117.87082 16007 ft 223 kts 304°
2026-04-26 21:33 50.27964 -117.89180 16010 ft 223 kts 304°
2026-04-26 21:33 50.28759 -117.91226 16009 ft 223 kts 304°
2026-04-26 21:33 50.29563 -117.93299 16011 ft 223 kts 304°
2026-04-26 21:34 50.30369 -117.95381 16006 ft 224 kts 304°
2026-04-26 21:34 50.31175 -117.97464 16008 ft 224 kts 304°
2026-04-26 21:34 50.31983 -117.99552 16001 ft 224 kts 304°
2026-04-26 21:34 50.32788 -118.01637 16007 ft 224 kts 303°
2026-04-26 21:35 50.33594 -118.03724 16013 ft 224 kts 303°
2026-04-26 21:35 50.34399 -118.05813 16010 ft 224 kts 304°
2026-04-26 21:35 50.35206 -118.07907 16007 ft 224 kts 303°
2026-04-26 21:35 50.36010 -118.09994 16011 ft 224 kts 303°
2026-04-26 21:36 50.36818 -118.12094 16019 ft 225 kts 304°
2026-04-26 21:36 50.37364 -118.13514 16014 ft 225 kts 303°
2026-04-26 21:36 50.38426 -118.16283 16003 ft 223 kts 303°
2026-04-26 21:36 50.39227 -118.18368 16008 ft 223 kts 304°
2026-04-26 21:37 50.40030 -118.20457 16012 ft 224 kts 303°
2026-04-26 21:37 50.40833 -118.22551 16009 ft 224 kts 303°
2026-04-26 21:37 50.41635 -118.24644 16007 ft 223 kts 303°
2026-04-26 21:37 50.42425 -118.26707 15999 ft 219 kts 303°
2026-04-26 21:38 50.43207 -118.28745 16001 ft 216 kts 304°
2026-04-26 21:38 50.43982 -118.30760 16005 ft 215 kts 304°
2026-04-26 21:38 50.44747 -118.32760 15999 ft 213 kts 303°
2026-04-26 21:38 50.45507 -118.34752 15994 ft 212 kts 304°
2026-04-26 21:39 50.46259 -118.36726 15970 ft 208 kts 304°
2026-04-26 21:39 50.46985 -118.38635 15970 ft 205 kts 304°
2026-04-26 21:39 50.47716 -118.40556 15988 ft 205 kts 304°
2026-04-26 21:39 50.48448 -118.42478 15992 ft 205 kts 304°
2026-04-26 21:40 50.49182 -118.44405 15989 ft 205 kts 304°
2026-04-26 21:40 50.49911 -118.46322 15989 ft 204 kts 304°
2026-04-26 21:40 50.50636 -118.48232 15988 ft 203 kts 304°
2026-04-26 21:40 50.51360 -118.50140 15990 ft 202 kts 304°
2026-04-26 21:41 50.52076 -118.52031 15989 ft 201 kts 304°
2026-04-26 21:41 50.52784 -118.53899 15987 ft 197 kts 304°
2026-04-26 21:41 50.53476 -118.55732 15990 ft 194 kts 304°
2026-04-26 21:41 50.54159 -118.57541 15995 ft 192 kts 304°
2026-04-26 21:42 50.54837 -118.59335 15987 ft 190 kts 304°
2026-04-26 21:42 50.55507 -118.61113 15985 ft 188 kts 304°
2026-04-26 21:42 50.56173 -118.62878 15986 ft 187 kts 304°
2026-04-26 21:42 50.56833 -118.64631 15983 ft 185 kts 304°
2026-04-26 21:43 50.57486 -118.66365 15986 ft 184 kts 304°
2026-04-26 21:43 50.58137 -118.68093 15993 ft 183 kts 304°
2026-04-26 21:43 50.58786 -118.69819 15988 ft 183 kts 304°
2026-04-26 21:43 50.59423 -118.71514 15985 ft 182 kts 304°
2026-04-26 21:44 50.60067 -118.73228 15984 ft 182 kts 304°
2026-04-26 21:44 50.60711 -118.74945 15991 ft 182 kts 304°
2026-04-26 21:44 50.61356 -118.76663 15990 ft 182 kts 305°
2026-04-26 21:44 50.62001 -118.78376 15985 ft 181 kts 305°
2026-04-26 21:45 50.62641 -118.80081 15985 ft 181 kts 304°
2026-04-26 21:45 50.63279 -118.81787 15989 ft 181 kts 304°
2026-04-26 21:45 50.63918 -118.83496 15990 ft 182 kts 304°
2026-04-26 21:45 50.64562 -118.85219 15987 ft 183 kts 304°
2026-04-26 21:46 50.65208 -118.86948 15988 ft 183 kts 304°
2026-04-26 21:46 50.65856 -118.88684 15995 ft 184 kts 304°
2026-04-26 21:46 50.66507 -118.90426 15989 ft 184 kts 304°
2026-04-26 21:46 50.67158 -118.92173 15994 ft 185 kts 304°
2026-04-26 21:47 50.67681 -118.94018 15992 ft 187 kts 289°
2026-04-26 21:47 50.67792 -118.96082 15995 ft 191 kts 273°
2026-04-26 21:47 50.67778 -118.98173 15996 ft 191 kts 275°
2026-04-26 21:47 50.67801 -119.00270 15995 ft 191 kts 276°
2026-04-26 21:48 50.67836 -119.02369 15991 ft 192 kts 276°
2026-04-26 21:48 50.67870 -119.04469 15988 ft 192 kts 276°
2026-04-26 21:48 50.67900 -119.06569 15987 ft 191 kts 276°
2026-04-26 21:48 50.67925 -119.08660 15988 ft 191 kts 275°
2026-04-26 21:49 50.67947 -119.10742 15990 ft 190 kts 275°
2026-04-26 21:49 50.67967 -119.12824 15991 ft 190 kts 275°
2026-04-26 21:49 50.67986 -119.14903 15992 ft 189 kts 275°
2026-04-26 21:49 50.68003 -119.16952 15991 ft 189 kts 275°
2026-04-26 21:50 50.68020 -119.19025 15990 ft 189 kts 275°
2026-04-26 21:50 50.68031 -119.20426 15993 ft 189 kts 275°
2026-04-26 21:50 50.68053 -119.23164 15987 ft 189 kts 275°
2026-04-26 21:50 50.68068 -119.25234 15998 ft 189 kts 275°
2026-04-26 21:51 50.68084 -119.27304 16004 ft 189 kts 275°
2026-04-26 21:51 50.68099 -119.29385 16004 ft 190 kts 275°
2026-04-26 21:51 50.68115 -119.31470 16002 ft 190 kts 275°
2026-04-26 21:51 50.68129 -119.33560 16001 ft 191 kts 275°
2026-04-26 21:52 50.68143 -119.35646 16002 ft 190 kts 275°
2026-04-26 21:52 50.68156 -119.37722 15997 ft 189 kts 275°
2026-04-26 21:52 50.68169 -119.39787 15991 ft 188 kts 275°
2026-04-26 21:52 50.68180 -119.41834 15983 ft 185 kts 275°
2026-04-26 21:53 50.68191 -119.43867 15991 ft 186 kts 276°
2026-04-26 21:53 50.68198 -119.45214 15997 ft 186 kts 276°
2026-04-26 21:53 50.68209 -119.47255 16004 ft 187 kts 276°
2026-04-26 21:53 50.68221 -119.49304 16005 ft 187 kts 276°
2026-04-26 21:54 50.68232 -119.51361 16004 ft 188 kts 275°
2026-04-26 21:54 50.68244 -119.53444 15908 ft 193 kts 275°
2026-04-26 21:54 50.68258 -119.55588 15772 ft 198 kts 275°
2026-04-26 21:54 50.68271 -119.57776 15627 ft 201 kts 275°
2026-04-26 21:55 50.68283 -119.60002 15501 ft 205 kts 275°
2026-04-26 21:55 50.68294 -119.62262 15384 ft 207 kts 275°
2026-04-26 21:55 50.68304 -119.64527 15258 ft 207 kts 275°
2026-04-26 21:55 50.68312 -119.66805 15132 ft 208 kts 275°
2026-04-26 21:56 50.68319 -119.69080 15011 ft 208 kts 275°
2026-04-26 21:56 50.68325 -119.71367 14902 ft 209 kts 275°
2026-04-26 21:56 50.68331 -119.73656 14791 ft 209 kts 275°
2026-04-26 21:56 50.68338 -119.75949 14669 ft 208 kts 275°
2026-04-26 21:57 50.68342 -119.78211 14544 ft 205 kts 275°
2026-04-26 21:57 50.68348 -119.80435 14379 ft 206 kts 275°
2026-04-26 21:57 50.68354 -119.82696 14186 ft 207 kts 275°
2026-04-26 21:57 50.68361 -119.84976 13979 ft 209 kts 275°
2026-04-26 21:58 50.68366 -119.87283 13734 ft 211 kts 275°
2026-04-26 21:58 50.68369 -119.89612 13465 ft 213 kts 275°
2026-04-26 21:58 50.68371 -119.91955 13186 ft 214 kts 275°
2026-04-26 21:58 50.68371 -119.94309 12920 ft 215 kts 274°
2026-04-26 21:59 50.68371 -119.96666 12647 ft 215 kts 274°
2026-04-26 21:59 50.68371 -119.99017 12349 ft 214 kts 274°
2026-04-26 21:59 50.68372 -120.01366 11994 ft 214 kts 273°
2026-04-26 21:59 50.68373 -120.03711 11572 ft 211 kts 273°
2026-04-26 22:00 50.68374 -120.05989 11126 ft 205 kts 273°
2026-04-26 22:00 50.68373 -120.08205 10694 ft 200 kts 273°
2026-04-26 22:00 50.68373 -120.10383 10268 ft 197 kts 273°
2026-04-26 22:00 50.68373 -120.12513 9844 ft 193 kts 273°
2026-04-26 22:01 50.68376 -120.14626 9377 ft 192 kts 272°
2026-04-26 22:01 50.68377 -120.16724 8819 ft 192 kts 272°
2026-04-26 22:01 50.68376 -120.18846 8292 ft 194 kts 272°
2026-04-26 22:01 50.68373 -120.20973 7777 ft 194 kts 272°
2026-04-26 22:02 50.68372 -120.23101 7265 ft 194 kts 272°
2026-04-26 22:02 50.68367 -120.25229 6766 ft 194 kts 271°
2026-04-26 22:02 50.68362 -120.27356 6262 ft 194 kts 271°
2026-04-26 22:02 50.68358 -120.29489 5757 ft 194 kts 271°
2026-04-26 22:03 50.68408 -120.31598 5248 ft 189 kts 287°
2026-04-26 22:03 50.69190 -120.33091 4736 ft 182 kts 338°
2026-04-26 22:03 50.70328 -120.33610 4222 ft 162 kts 332°
2026-04-26 22:03 50.70866 -120.35043 3702 ft 157 kts 271°
2026-04-26 22:04 50.70358 -120.36488 3140 ft 156 kts 218°
2026-04-26 22:04 50.69694 -120.37772 2583 ft 152 kts 251°
2026-04-26 22:04 50.69432 -120.39363 2123 ft 150 kts 275°
2026-04-26 22:04 50.69638 -120.40917 1762 ft 140 kts 287°
2026-04-26 22:05 50.69926 -120.42320 1433 ft 120 kts 283°
2026-04-26 22:05 50.70101 -120.43498 1151 ft 103 kts 281°
2026-04-26 22:05 50.70234 -120.44438 1132 ft 63 kts 284°
2026-04-26 22:05 50.70285 -120.44758 1134 ft 20 kts 333°
2026-04-26 22:06 50.70268 -120.44591 1130 ft 20 kts 109°
2026-04-26 22:06 50.70267 -120.44391 1131 ft 19 kts 28°
2026-04-26 22:06 50.70353 -120.44300 1131 ft 14 kts 61°
2026-04-26 22:06 50.70400 -120.44170 1133 ft 13 kts 60°
2026-04-26 22:07 50.70441 -120.44048 1133 ft 12 kts 51°
2026-04-26 22:07 50.70513 -120.43986 1133 ft 12 kts 30°
2026-04-26 22:07 50.70563 -120.43887 1131 ft 10 kts 65°
2026-04-26 22:07 50.70586 -120.43821 1132 ft 4 kts 78°
2026-04-26 22:08 50.70573 -120.43792 1131 ft 4 kts 111°
2026-04-26 22:08 50.70581 -120.43756 1131 ft 1 kts 60°
2026-04-26 22:08 50.70582 -120.43754 1131 ft 0 kts 62°